Погода в Кавказском

Россия / Красноярский край     53°57′57″N   91°55′43″E
темп.,
°C
ветер,
м/с
пор.,
м/с
влажн.,
%
обл.,
%
осадки,
мм/ч
давл.,
гПа
погр.,
м
17 апреля, сб
сб1701:00+7юз5137323 0.0 1011314
04:00+8зюз61375100 0.2 1010450
07:00+1ссз61084100 0.7 1013467
10:00+1с61076100 3.1 1015869
13:00+2с7861100 3.4 10181473
16:00+3с5651100 0.0 10201559
19:00+1с4558100 0.0 1021771
22:00−1ссз4663100 0.0 1023430
18 апреля, вс
вс1801:00−1сз2460100 0.0 1024486
04:00−2зюз1164100 0.0 102459
07:00−2юв2361100 0.0 1023365
10:00+1ююв3565100 0.0 1021831
13:00+4юз5759100 0.0 10171337
16:00+4юз3559100 0.0 1015765
19:00+3юв3473100 0.0 101399
22:00+1ююв2284100 0.0 101229
19 апреля, пн
пн1901:00+1ююв2785100 0.0 1008165
04:00+2юв41086100 0.0 1002197
07:00+5юз91777100 0.1 1000619
10:00+3зюз12194893 0.1 10081939
13:00+3з111535100 0.1 10132392
16:00+2сз101340100 0.0 10172185
19:000сз7104875 0.0 10201664
22:00−3сз5953100 0.0 10241348
20 апреля, вт
вт2001:00−4сз5744100 0.0 10251181
04:00−5зсз4545100 0.0 10251066
07:00−5зсз4645100 0.0 10261157
10:00−3сз4440100 0.0 10271592
13:00−2сз4530100 0.0 10252170
16:00−1ссз342757 0.0 10242138
19:00−2с443162 0.0 10231163
22:00−4ссв234536 0.0 102466
21 апреля, ср
ср2101:00−5ссв125350 0.0 102441
04:00−5ссв115292 0.0 102521
07:00−4вюв11465 0.0 1025235
10:00−1ююв233298 0.0 10251855
13:00+1юв2228100 0.0 10232208
16:00+2в4330100 0.0 10221969
19:000всв3537100 0.0 1023662
22:00−1ссв2545100 0.0 1024129